FW6411 Weather Reports


time (UTC)temp
C
wind
direction
speed
KPH
gust
KPH
rain 1hr
cm
rain 24hr
cm
rain mn
cm
humidity
%
barometer
mb
20260508203006 8 305 9.7 16.1 0.00 0.71 0.00 71 1002.2
20260508202603 10 328 8.0 14.5 0.00 0.71 0.00 67 1002.3
20260508202006 11 160 0.0 14.5 0.00 0.71 0.00 65 1002.2
20260508201503 11 22 6.4 14.5 0.00 0.71 0.00 61 1002.1
20260508201008 11 339 8.0 14.5 0.00 0.71 0.00 62 1002.0
20260508200504 11 306 6.4 11.3 0.00 0.71 0.00 60 1001.9
20260508200011 11 312 4.8 12.9 0.00 0.71 0.00 63 1001.8
20260508195504 10 335 6.4 12.9 0.00 1.42 0.00 64 1001.7
20260508195008 10 349 4.8 16.1 0.00 1.42 0.00 66 1001.6
20260508194507 10 319 8.0 16.1 0.00 1.42 0.00 68 1001.6
20260508194102 11 324 8.0 14.5 0.00 1.42 0.00 59 1001.5
20260508193505 11 329 8.0 14.5 0.00 1.42 0.00 61 1001.5
20260508192507 12 61 8.0 14.5 0.00 1.42 0.00 60 1001.5
20260508192004 11 347 6.4 20.9 0.00 1.42 0.00 60 1001.4
20260508191508 11 348 8.0 20.9 0.00 1.42 0.00 61 1001.4
20260508191005 11 9 9.7 20.9 0.00 1.42 0.00 58 1001.4
20260508190510 12 15 9.7 19.3 0.00 1.42 0.00 57 1001.4
20260508190005 12 38 9.7 19.3 0.00 1.42 0.00 56 1001.3
20260508185613 12 311 6.4 17.7 0.00 1.70 0.00 58 1001.3
20260508185005 12 341 9.7 16.1 0.00 1.70 0.00 59 1001.3
20260508184509 12 21 8.0 17.7 0.00 1.70 0.00 58 1001.3
20260508184106 12 310 8.0 17.7 0.00 1.70 0.00 58 1001.1
20260508183504 12 24 6.4 17.7 0.00 1.70 0.00 57 1001.0
20260508183007 12 69 9.7 20.9 0.00 1.70 0.00 56 1001.1
20260508182503 12 26 8.0 20.9 0.00 1.70 0.00 56 1001.3
20260508182009 12 26 6.4 16.1 0.00 1.70 0.00 59 1001.4
20260508181504 12 34 6.4 17.7 0.00 1.70 0.00 58 1001.5
20260508181011 12 332 6.4 17.7 0.00 1.70 0.00 59 1001.4
20260508180506 12 26 9.7 16.1 0.00 1.70 0.00 58 1001.5
20260508180107 12 10 8.0 14.5 0.00 1.70 0.00 59 1001.5
20260508175508 12 358 6.4 19.3 0.00 1.70 0.00 59 1001.5
20260508175004 12 67 4.8 16.1 0.00 1.70 0.00 58 1001.5
20260508174507 12 40 6.4 16.1 0.00 1.70 0.00 59 1001.5
20260508174004 12 26 4.8 14.5 0.00 1.70 0.00 60 1001.6
20260508173506 12 26 6.4 14.5 0.00 1.70 0.00 61 1001.6
20260508173010 11 355 4.8 12.9 0.00 1.70 0.00 62 1001.6
20260508172508 11 345 4.8 12.9 0.00 1.70 0.00 63 1001.7
20260508172103 11 309 3.2 12.9 0.00 1.70 0.00 64 1001.7
20260508171506 11 318 3.2 12.9 0.00 1.70 0.00 64 1001.9
20260508171010 11 17 4.8 12.9 0.00 1.70 0.00 67 1002.0
20260508170507 10 16 4.8 12.9 0.00 1.70 0.00 67 1002.0
20260508170010 10 348 4.8 12.9 0.00 1.70 0.00 67 1002.0
20260508165505 10 26 6.4 14.5 0.00 1.70 0.00 67 1002.1
20260508165009 10 76 6.4 14.5 0.00 1.70 0.00 67 1002.0
20260508164507 10 65 4.8 11.3 0.00 1.70 0.00 67 1001.9
20260508164010 10 322 3.2 11.3 0.00 1.70 0.00 67 1001.9
20260508163505 10 17 4.8 12.9 0.00 1.70 0.00 66 1001.9
20260508163014 10 19 4.8 14.5 0.00 1.70 0.00 67 1001.7
20260508162502 10 360 6.4 14.5 0.00 1.70 0.00 67 1001.7
20260508162011 10 67 3.2 11.3 0.00 1.70 0.00 67 1002.0
20260508161504 10 338 4.8 11.3 0.00 1.70 0.00 67 1001.9
20260508161010 10 348 3.2 11.3 0.00 1.70 0.00 68 1001.7
20260508160504 10 342 4.8 9.7 0.00 1.70 0.00 69 1001.8
20260508160009 10 308 4.8 9.7 0.00 1.70 0.00 69 1001.9
20260508155505 10 320 4.8 14.5 0.00 1.70 0.00 69 1002.0
20260508155007 10 14 4.8 14.5 0.00 1.70 0.00 69 1002.0
20260508154510 10 29 6.4 16.1 0.00 1.70 0.00 70 1001.8
20260508154005 10 8 6.4 16.1 0.00 1.70 0.00 70 1001.8
20260508153507 10 40 6.4 16.1 0.00 1.70 0.00 70 1001.9
20260508153009 10 353 6.4 14.5 0.00 1.70 0.00 71 1002.0
20260508152508 10 320 3.2 9.7 0.00 1.70 0.00 71 1002.0
20260508152105 10 353 4.8 14.5 0.00 1.70 0.00 71 1001.8
20260508151509 10 18 6.4 14.5 0.00 1.70 0.00 71 1001.8
20260508151005 10 324 3.2 12.9 0.00 1.70 0.00 72 1002.0
20260508150508 10 7 4.8 12.9 0.00 1.70 0.00 73 1001.9
20260508150004 10 1 8.0 12.9 0.00 1.70 0.00 72 1001.9
20260508145512 10 327 6.4 11.3 0.00 1.70 0.00 73 1002.0
20260508145106 10 24 6.4 12.9 0.00 1.70 0.00 74 1002.2
20260508144510 10 319 6.4 16.1 0.00 1.70 0.00 74 1002.0
20260508144005 10 55 6.4 16.1 0.00 1.70 0.00 74 1002.1
20260508143509 10 332 6.4 12.9 0.00 1.70 0.00 73 1002.2
20260508143118 10 309 6.4 12.9 0.00 1.70 0.00 74 1002.1
20260508142506 10 312 4.8 14.5 0.00 1.70 0.00 74 1002.1
20260508142002 10 309 8.0 14.5 0.00 1.70 0.00 75 1002.0
20260508141510 10 74 8.0 14.5 0.00 1.70 0.00 75 1002.2
20260508141005 10 357 8.0 17.7 0.00 1.70 0.00 74 1002.4
20260508140512 10 346 6.4 17.7 0.00 1.70 0.00 75 1002.4
20260508140007 10 11 8.0 17.7 0.00 1.70 0.00 75 1002.4
20260508135508 10 355 6.4 11.3 0.00 1.70 0.00 74 1002.3
20260508135004 10 354 4.8 11.3 0.00 1.70 0.00 74 1002.4
20260508134511 10 332 3.2 12.9 0.00 1.70 0.00 77 1002.6
20260508134002 10 1 8.0 12.9 0.00 1.70 0.00 77 1002.7
20260508133510 10 16 4.8 12.9 0.00 1.70 0.00 77 1003.0
20260508133004 10 5 6.4 12.9 0.00 1.70 0.00 76 1002.9
20260508132507 10 329 6.4 12.9 0.00 1.70 0.00 78 1002.8
20260508132005 10 323 8.0 12.9 0.00 1.70 0.00 77 1002.7
20260508131508 10 314 6.4 16.1 0.00 1.70 0.00 78 1002.6
20260508131104 10 349 4.8 16.1 0.00 1.70 0.00 78 1002.4
20260508130506 9 341 4.8 16.1 0.00 1.70 0.00 80 1002.4
20260508130105 9 24 6.4 16.1 0.00 1.70 0.00 79 1002.3
20260508125506 9 344 9.7 17.7 0.00 1.70 0.00 80 1002.4
20260508125010 9 13 9.7 17.7 0.00 1.70 0.00 80 1002.2
20260508124605 9 3 4.8 14.5 0.00 1.70 0.00 81 1002.3
20260508124010 9 327 4.8 12.9 0.00 1.70 0.00 81 1002.0
20260508123505 9 358 6.4 12.9 0.00 1.70 0.00 84 1002.1
20260508123014 8 359 8.0 12.9 0.00 1.70 0.00 85 1002.3
20260508122511 8 353 6.4 12.9 0.00 1.70 0.00 87 1002.5
20260508122007 8 351 6.4 12.9 0.00 1.70 0.00 90 1002.5
20260508121511 7 358 4.8 11.3 0.00 1.70 0.00 93 1002.4
20260508121007 6 329 4.8 12.9 0.00 1.70 0.00 92 1002.4
20260508120604 6 332 6.4 12.9 0.00 1.70 0.00 94 1002.3
20260508120006 6 324 6.4 11.3 0.00 1.70 0.00 93 1002.5
20260508115603 6 337 4.8 9.7 0.00 1.70 0.00 93 1002.7
20260508115007 5 305 3.2 8.0 0.00 1.70 0.00 94 1002.7
20260508114504 5 298 3.2 8.0 0.00 1.70 0.00 94 1002.7
20260508114007 5 296 1.6 6.4 0.00 1.70 0.00 94 1002.8
20260508113604 5 290 3.2 6.4 0.00 1.70 0.00 95 1002.8
20260508113007 5 304 3.2 8.0 0.00 1.70 0.00 95 1002.6
20260508112604 5 292 1.6 8.0 0.00 1.70 0.00 95 1002.4
20260508112007 5 326 1.6 6.4 0.00 1.70 0.00 95 1002.6
20260508111512 4 295 1.6 6.4 0.00 1.70 0.00 95 1002.6
20260508111010 4 310 1.6 6.4 0.00 1.70 0.00 95 1002.6
20260508110506 4 303 1.6 4.8 0.00 1.70 0.00 95 1002.6
20260508110025 4 301 1.6 4.8 0.00 1.70 0.00 95 1002.6
20260508105506 4 320 1.6 4.8 0.00 1.70 0.00 95 1002.6
20260508105012 4 303 1.6 4.8 0.00 1.70 0.00 96 1002.8
20260508104510 4 313 1.6 4.8 0.00 1.70 0.00 95 1003.0
20260508104011 4 324 1.6 6.4 0.00 1.70 0.00 95 1003.0
20260508103507 3 304 3.2 8.0 0.00 1.70 0.00 95 1003.0
20260508102509 3 313 3.2 6.4 0.00 1.70 0.00 95 1002.9
20260508102011 3 313 1.6 4.8 0.00 1.70 0.00 95 1002.8
20260508101505 3 302 1.6 4.8 0.00 1.70 0.00 96 1002.8
20260508101010 3 311 1.6 4.8 0.00 1.70 0.00 96 1002.8
20260508100505 3 317 1.6 4.8 0.00 1.70 0.00 96 1002.9
20260508100010 3 325 1.6 4.8 0.00 1.70 0.00 95 1002.8
20260508095506 3 298 0.0 3.2 0.00 1.73 0.00 95 1002.6
20260508095011 3 297 1.6 3.2 0.00 1.73 0.00 95 1002.5
20260508094606 3 320 1.6 3.2 0.00 1.73 0.00 95 1002.3
20260508094010 3 318 1.6 3.2 0.00 1.73 0.00 95 1002.5
20260508093508 3 305 0.0 3.2 0.00 1.73 0.00 95 1002.5
20260508093012 3 322 0.0 6.4 0.00 1.73 0.00 95 1002.5
20260508092505 3 301 0.0 6.4 0.00 1.73 0.00 95 1002.6
20260508092010 3 323 3.2 6.4 0.00 1.73 0.00 95 1002.5
20260508091505 3 323 3.2 6.4 0.00 1.73 0.00 95 1002.5
20260508091010 4 309 1.6 4.8 0.00 1.73 0.00 95 1002.5
20260508090505 4 322 1.6 4.8 0.00 1.73 0.00 95 1002.4
20260508090010 4 329 0.0 3.2 0.00 1.73 0.00 95 1002.4
20260508085506 4 252 0.0 3.2 0.00 1.83 0.00 95 1002.4
20260508085010 4 299 0.0 3.2 0.00 1.83 0.00 95 1002.4
20260508084505 4 296 0.0 3.2 0.00 1.83 0.00 95 1002.5
20260508084009 5 280 0.0 1.6 0.00 1.83 0.00 95 1002.5
20260508083504 4 292 0.0 1.6 0.00 1.83 0.00 95 1002.3
20260508083009 5 306 0.0 1.6 0.00 1.83 0.00 95 1002.2
20260508082505 5 299 0.0 4.8 0.00 1.83 0.00 95 1002.1
20260508082008 5 305 1.6 4.8 0.00 1.83 0.00 94 1002.0
20260508081504 5 318 3.2 0.0 0.00 0.00 0.00 94 1001.9
20260508081010 5 320 1.6 8.0 0.00 1.83 0.00 94 1002.2
20260508080605 5 332 3.2 8.0 0.00 1.83 0.00 95 1002.1
20260508080012 5 360 3.2 8.0 0.00 1.83 0.00 95 1001.9
20260508075505 5 349 1.6 4.8 0.00 1.85 0.00 95 1002.0
20260508075011 5 22 1.6 9.7 0.00 1.85 0.00 95 1001.9
20260508074506 5 348 4.8 9.7 0.00 1.85 0.00 95 1001.9
20260508074011 5 17 3.2 8.0 0.00 1.85 0.00 95 1002.0
20260508073507 6 5 3.2 8.0 0.00 1.85 0.00 95 1002.1
20260508073011 6 14 1.6 9.7 0.00 1.85 0.00 95 1002.0
20260508072604 6 17 4.8 9.7 0.00 1.85 0.00 95 1002.1
20260508072012 6 37 3.2 8.0 0.00 1.85 0.00 95 1002.0
20260508071505 6 342 3.2 6.4 0.00 1.85 0.00 95 1002.2
20260508071010 6 318 1.6 4.8 0.00 1.85 0.00 95 1002.1
20260508070509 6 355 1.6 8.0 0.00 1.85 0.00 95 1002.1
20260508070008 6 5 3.2 8.0 0.00 1.85 0.00 95 1002.0
20260508065603 6 328 1.6 8.0 0.00 1.85 0.00 95 1002.0
20260508065011 6 22 3.2 11.3 0.00 1.85 0.00 94 1002.0
20260508064603 6 334 4.8 11.3 0.00 1.85 0.00 94 1002.0
20260508064009 6 29 3.2 14.5 0.00 1.85 0.00 94 1002.0
20260508063510 7 26 6.4 14.5 0.00 1.85 0.00 94 1001.9
20260508063006 7 12 3.2 14.5 0.00 1.85 0.00 94 1002.1
20260508062510 7 335 4.8 11.3 0.00 1.85 0.00 94 1002.1
20260508062005 7 320 3.2 12.9 0.00 1.85 0.00 95 1001.8
20260508061510 7 40 6.4 12.9 0.00 1.85 0.00 95 1001.9
20260508061106 8 306 6.4 12.9 0.00 1.85 0.00 95 1001.9
20260508060510 8 52 6.4 12.9 0.00 1.85 0.00 95 1001.7
20260508060005 8 343 4.8 12.9 0.00 1.85 0.00 95 1001.6
20260508055508 8 337 6.4 12.9 0.00 1.85 0.00 95 1001.7
20260508055106 8 341 1.6 6.4 0.00 1.85 0.00 95 1001.5
20260508054518 8 2 1.6 6.4 0.00 1.85 0.00 94 1001.6
20260508054003 8 315 1.6 8.0 0.00 1.85 0.00 95 1001.6
20260508053509 8 10 3.2 8.0 0.00 1.85 0.00 95 1001.8
20260508053005 8 338 1.6 6.4 0.00 1.85 0.00 95 1001.7
20260508052508 8 328 1.6 8.0 0.00 1.85 0.00 95 1001.4
20260508052105 8 359 1.6 8.0 0.00 1.85 0.00 95 1001.4
20260508051507 8 42 1.6 4.8 0.00 1.85 0.00 95 1001.4
20260508051105 9 357 0.0 3.2 0.00 1.85 0.00 95 1001.3
20260508050508 9 8 0.0 1.6 0.00 1.85 0.00 95 1001.2
20260508050104 9 344 0.0 3.2 0.00 1.85 0.00 95 1001.4
20260508045507 9 314 0.0 3.2 0.00 1.85 0.00 96 1001.5
20260508045010 9 318 0.0 1.6 0.00 1.85 0.00 96 1001.6
20260508044507 9 196 0.0 1.6 0.00 1.85 0.00 95 1001.6
20260508044011 9 196 0.0 1.6 0.00 1.85 0.00 96 1001.6
20260508043507 9 196 0.0 1.6 0.00 1.85 0.00 96 1001.6
20260508043103 9 196 0.0 1.6 0.00 1.85 0.00 96 1001.6
20260508042513 9 185 0.0 0.0 0.00 1.85 0.00 96 1001.7
20260508042004 9 185 0.0 0.0 0.00 1.85 0.00 96 1001.8
20260508041514 9 185 0.0 0.0 0.00 1.85 0.00 96 1001.7
20260508041004 9 185 0.0 0.0 0.00 1.85 0.00 96 1001.7
20260508040510 9 185 0.0 0.0 0.00 1.85 0.00 96 1001.7
20260508040005 9 185 0.0 0.0 0.00 1.85 0.00 96 1001.9
20260508035509 9 185 0.0 0.0 0.00 1.85 0.00 96 1002.0
20260508034511 9 185 0.0 0.0 0.00 1.85 0.00 95 1002.1
20260508033507 9 185 0.0 1.6 0.00 1.85 0.00 95 1002.1
20260508033006 9 185 0.0 1.6 0.00 1.85 0.00 95 1002.1
20260508032508 9 197 0.0 1.6 0.00 1.85 0.00 95 1002.1
20260508032004 9 206 0.0 4.8 0.00 1.85 0.00 95 1002.1
20260508031512 9 170 1.6 4.8 0.00 1.85 0.00 95 1002.3
20260508031005 9 213 1.6 4.8 0.00 1.85 0.00 95 1002.2
20260508030511 9 209 0.0 3.2 0.00 1.85 0.00 95 1002.2
20260508030005 9 161 0.0 3.2 0.00 1.85 0.00 95 1002.3
20260508025511 8 171 0.0 3.2 0.00 1.85 1.85 95 1002.4
20260508025002 9 192 0.0 6.4 0.00 1.85 1.85 95 1002.0
20260508024508 9 175 3.2 9.7 0.00 1.85 1.85 95 1002.1
20260508024003 9 200 4.8 9.7 0.00 1.85 1.85 95 1001.8
20260508023510 9 211 3.2 8.0 0.00 1.85 1.85 95 1001.9
20260508023004 9 195 3.2 8.0 0.00 1.85 1.85 95 1001.8
20260508022509 9 211 4.8 8.0 0.00 1.85 1.85 95 1001.9
20260508022005 9 230 3.2 6.4 0.00 1.85 1.85 95 1002.0
20260508021509 9 207 3.2 6.4 0.00 1.85 1.85 95 1001.8
20260508021005 9 218 3.2 6.4 0.00 1.85 1.85 95 1001.7
20260508020510 9 211 1.6 9.7 0.00 1.85 1.85 95 1002.0
20260508020005 9 220 4.8 9.7 0.00 1.85 1.85 95 1002.0
20260508015604 9 217 4.8 9.7 0.00 1.85 1.85 95 1002.0
20260508015004 9 191 1.6 9.7 0.00 1.85 1.85 95 1002.0
20260508014511 9 226 4.8 9.7 0.00 1.85 1.85 95 1002.1
20260508014007 9 170 4.8 9.7 0.00 1.85 1.85 95 1002.1
20260508013606 9 250 1.6 6.4 0.00 1.85 1.85 95 1002.0
20260508013006 8 163 3.2 6.4 0.00 1.85 1.85 95 1001.9
20260508012503 8 143 1.6 6.4 0.00 1.85 1.85 95 1001.8
20260508012007 8 167 1.6 6.4 0.00 1.85 1.85 95 1001.7
20260508011504 8 217 3.2 9.7 0.00 1.85 1.85 95 1002.0
20260508011007 8 147 1.6 9.7 0.00 1.85 1.85 95 1001.9
20260508010503 8 144 4.8 12.9 0.00 1.85 1.85 95 1002.0
20260508010019 8 152 3.2 12.9 0.00 1.85 1.85 94 1002.2
20260508005504 8 142 4.8 12.9 0.00 1.85 1.85 95 1002.5
20260508005004 8 192 6.4 12.9 0.00 1.85 1.85 94 1002.4
20260508004518 9 149 3.2 9.7 0.00 1.85 1.85 94 1002.3
20260508004005 9 165 3.2 9.7 0.00 1.85 1.85 94 1002.4
20260508003509 8 152 4.8 9.7 0.00 1.85 1.85 94 1002.3
20260508003007 8 206 3.2 6.4 0.00 1.85 1.85 94 1002.1
20260508002604 9 172 3.2 6.4 0.00 1.85 1.85 94 1002.1
20260508002007 9 187 0.0 8.0 0.00 1.85 1.85 94 1002.2
20260508001505 9 174 3.2 9.7 0.00 1.85 1.85 94 1002.3
20260508001008 9 201 3.2 9.7 0.00 1.85 1.85 94 1002.2
20260508000503 9 215 4.8 9.7 0.00 1.85 1.85 94 1002.5
20260508000008 9 163 4.8 9.7 0.00 1.85 1.85 94 1002.8
20260507235504 9 169 4.8 9.7 0.00 1.85 1.85 94 1002.7
20260507235113 9 149 3.2 9.7 0.00 1.85 1.85 94 1002.6
20260507234613 9 199 4.8 12.9 0.03 1.85 1.85 94 1002.3
20260507234006 9 175 4.8 12.9 0.03 1.85 1.85 94 1002.5
20260507233603 9 170 3.2 14.5 0.03 1.85 1.85 94 1002.6
20260507233007 9 153 8.0 14.5 0.03 1.85 1.85 94 1002.7
20260507232502 9 161 6.4 14.5 0.03 1.85 1.85 94 1002.6
20260507232008 9 144 6.4 14.5 0.03 1.85 1.85 94 1002.8
20260507231504 9 213 4.8 12.9 0.03 1.85 1.85 94 1002.8
20260507231008 9 168 6.4 16.1 0.03 1.85 1.85 94 1003.0
20260507230504 9 151 9.7 16.1 0.03 1.85 1.85 94 1003.0
20260507230008 9 192 6.4 9.7 0.03 1.85 1.85 94 1002.9
20260507225505 9 180 3.2 9.7 0.03 1.85 1.85 94 1002.6
20260507225013 9 157 3.2 12.9 0.03 1.85 1.85 94 1002.6
20260507224514 9 157 4.8 11.3 0.00 1.83 1.83 93 1003.0
20260507224005 9 165 4.8 11.3 0.00 1.83 1.83 93 1003.0
20260507223513 9 148 4.8 11.3 0.00 1.83 1.83 93 1003.0
20260507223007 9 173 4.8 14.5 0.00 1.83 1.83 93 1003.0
20260507222604 9 174 6.4 17.7 0.00 1.83 1.83 93 1002.7
20260507222009 9 154 8.0 22.5 0.00 1.83 1.83 93 1002.9
20260507221505 9 167 11.3 22.5 0.00 1.83 1.83 93 1003.0
20260507221009 10 189 11.3 19.3 0.00 1.83 1.83 92 1002.9
20260507220505 10 164 9.7 25.7 0.00 1.83 1.83 92 1003.1
20260507220010 10 155 17.7 25.7 0.00 1.83 1.83 92 1002.9
20260507215505 10 204 12.9 25.7 0.03 1.83 1.83 93 1002.8
20260507215010 10 146 12.9 25.7 0.03 1.83 1.83 93 1002.9
20260507214006 9 139 16.1 27.4 0.13 1.83 1.83 92 1002.7
20260507213504 9 118 12.9 37.0 0.18 1.83 1.83 92 1002.5
20260507213008 9 115 19.3 37.0 0.23 1.83 1.83 92 1002.4
20260507212503 9 126 17.7 43.5 0.30 1.83 1.83 92 1001.9
20260507212008 9 114 24.1 43.5 0.38 1.83 1.83 92 1001.6
20260507211503 9 183 17.7 33.8 0.43 1.83 1.83 92 1002.1
20260507211007 9 156 11.3 24.1 0.51 1.83 1.83 92 1002.4
20260507210005 9 119 14.5 29.0 0.66 1.83 1.83 92 1003.1
20260507205511 10 141 12.9 29.0 0.71 1.83 1.83 92 1003.2
20260507205106 10 138 16.1 30.6 0.79 1.83 1.83 92 1003.4
20260507204503 10 168 17.7 30.6 0.86 1.75 1.75 91 1003.5
20260507204007 10 133 12.9 29.0 0.86 1.70 1.70 92 1003.9
20260507203604 10 139 16.1 29.0 0.89 1.65 1.65 92 1003.7